date,time,SUV Intensity [MED/Hr],UV Index,Daily total [MED],Since Last [MED]
25/12/2023,00:05:06,-0.001,0.0,0.0,0.0
25/12/2023,00:06:06,0.000,0.0,0.0,0.0
25/12/2023,00:07:06,0.000,0.0,0.0,0.0
25/12/2023,00:08:06,0.000,0.0,0.0,0.0
25/12/2023,00:09:06,0.000,0.0,0.0,0.0
25/12/2023,00:10:06,0.000,0.0,0.0,0.0
25/12/2023,00:11:06,0.000,0.0,0.0,0.0
25/12/2023,00:12:06,0.000,0.0,0.0,0.0
25/12/2023,00:13:06,0.000,0.0,0.0,0.0
25/12/2023,00:14:06,0.000,0.0,0.0,0.0
25/12/2023,00:15:06,0.000,0.0,0.0,0.0
25/12/2023,00:16:06,0.000,0.0,0.0,0.0
25/12/2023,00:17:06,0.000,0.0,0.0,0.0
25/12/2023,00:18:06,0.000,0.0,0.0,0.0
25/12/2023,00:19:06,0.000,0.0,0.0,0.0
25/12/2023,00:20:07,-0.000,0.0,0.0,0.0
25/12/2023,00:21:06,0.000,0.0,0.0,0.0
25/12/2023,00:22:06,0.000,0.0,0.0,0.0
25/12/2023,00:23:06,0.000,0.0,0.0,0.0
25/12/2023,00:24:07,0.001,0.0,0.0,0.0
25/12/2023,00:25:06,0.000,0.0,0.0,0.0
25/12/2023,00:26:06,0.000,0.0,0.0,0.0
25/12/2023,00:27:06,0.000,0.0,0.0,0.0
25/12/2023,00:28:06,0.000,0.0,0.0,0.0
25/12/2023,00:29:06,0.000,0.0,0.0,0.0
25/12/2023,00:30:06,0.000,0.0,0.0,0.0
25/12/2023,00:31:07,0.001,0.0,0.0,0.0
25/12/2023,00:32:06,-0.000,0.0,0.0,0.0
25/12/2023,00:33:06,0.000,0.0,0.0,0.0
25/12/2023,00:34:06,0.000,0.0,0.0,0.0
25/12/2023,00:35:06,-0.001,0.0,0.0,0.0
25/12/2023,00:36:06,0.000,0.0,0.0,0.0
25/12/2023,00:37:07,0.000,0.0,0.0,0.0
25/12/2023,00:38:06,0.000,0.0,0.0,0.0
25/12/2023,00:39:06,0.000,0.0,0.0,0.0
25/12/2023,00:40:06,0.001,0.0,0.0,0.0
25/12/2023,00:41:06,0.000,0.0,0.0,0.0
25/12/2023,00:42:07,0.000,0.0,0.0,0.0
25/12/2023,00:43:06,0.000,0.0,0.0,0.0
25/12/2023,00:44:06,0.000,0.0,0.0,0.0
25/12/2023,00:45:06,0.000,0.0,0.0,0.0
25/12/2023,00:46:06,0.000,0.0,0.0,0.0
25/12/2023,00:47:06,0.000,0.0,0.0,0.0
25/12/2023,00:48:07,0.001,0.0,0.0,0.0
25/12/2023,00:49:06,-0.000,0.0,0.0,0.0
25/12/2023,00:50:06,0.000,0.0,0.0,0.0
25/12/2023,00:51:06,0.001,0.0,0.0,0.0
25/12/2023,00:52:06,-0.000,0.0,0.0,0.0
25/12/2023,00:53:06,0.000,0.0,0.0,0.0
25/12/2023,00:54:06,0.001,0.0,0.0,0.0
25/12/2023,00:55:06,-0.000,0.0,0.0,0.0
25/12/2023,00:56:06,0.000,0.0,0.0,0.0
25/12/2023,00:57:06,0.000,0.0,0.0,0.0
25/12/2023,00:58:06,0.001,0.0,0.0,0.0
25/12/2023,00:59:07,0.001,0.0,0.0,0.0
25/12/2023,01:00:06,-0.000,0.0,0.0,0.0
25/12/2023,01:01:06,0.000,0.0,0.0,0.0
25/12/2023,01:02:07,0.000,0.0,0.0,0.0
25/12/2023,01:03:07,-0.001,0.0,0.0,0.0
25/12/2023,01:04:06,0.000,0.0,0.0,0.0
25/12/2023,01:05:06,0.000,0.0,0.0,0.0
25/12/2023,01:06:07,0.000,0.0,0.0,0.0
25/12/2023,01:07:06,0.000,0.0,0.0,0.0
25/12/2023,01:08:07,0.000,0.0,0.0,0.0
25/12/2023,01:09:06,0.001,0.0,0.0,0.0
25/12/2023,01:10:06,-0.001,0.0,0.0,0.0
25/12/2023,01:11:06,0.000,0.0,0.0,0.0
25/12/2023,01:12:07,0.000,0.0,0.0,0.0
25/12/2023,01:13:06,0.000,0.0,0.0,0.0
25/12/2023,01:14:06,0.000,0.0,0.0,0.0
25/12/2023,01:15:06,0.000,0.0,0.0,0.0
25/12/2023,01:16:06,0.000,0.0,0.0,0.0
25/12/2023,01:17:06,0.001,0.0,0.0,0.0
25/12/2023,01:18:07,0.001,0.0,0.0,0.0
25/12/2023,01:19:06,0.000,0.0,0.0,0.0
25/12/2023,01:20:06,0.000,0.0,0.0,0.0
25/12/2023,01:21:06,0.000,0.0,0.0,0.0
25/12/2023,01:22:06,0.000,0.0,0.0,0.0
25/12/2023,01:23:06,-0.000,0.0,0.0,0.0
25/12/2023,01:24:06,0.000,0.0,0.0,0.0
25/12/2023,01:25:06,0.000,0.0,0.0,0.0
25/12/2023,01:26:06,0.000,0.0,0.0,0.0
25/12/2023,01:27:06,0.000,0.0,0.0,0.0
25/12/2023,01:28:06,0.001,0.0,0.0,0.0
25/12/2023,01:29:06,-0.001,0.0,0.0,0.0
25/12/2023,01:30:06,0.001,0.0,0.0,0.0
25/12/2023,01:31:06,-0.000,0.0,0.0,0.0
25/12/2023,01:32:06,0.000,0.0,0.0,0.0
25/12/2023,01:33:06,0.000,0.0,0.0,0.0
25/12/2023,01:34:06,0.000,0.0,0.0,0.0
25/12/2023,01:35:07,0.000,0.0,0.0,0.0
25/12/2023,01:36:06,0.000,0.0,0.0,0.0
25/12/2023,01:37:06,-0.001,0.0,0.0,0.0
25/12/2023,01:38:06,0.000,0.0,0.0,0.0
25/12/2023,01:39:07,0.000,0.0,0.0,0.0
25/12/2023,01:40:06,0.000,0.0,0.0,0.0
25/12/2023,01:41:07,0.001,0.0,0.0,0.0
25/12/2023,01:42:07,0.000,0.0,0.0,0.0
25/12/2023,01:43:06,0.000,0.0,0.0,0.0
25/12/2023,01:44:06,-0.001,0.0,0.0,0.0
25/12/2023,01:45:06,-0.000,0.0,0.0,0.0
25/12/2023,01:46:06,0.000,0.0,0.0,0.0
25/12/2023,01:47:07,0.000,0.0,0.0,0.0
25/12/2023,01:48:08,0.000,0.0,0.0,0.0
25/12/2023,01:49:06,0.000,0.0,0.0,0.0
25/12/2023,01:50:06,0.000,0.0,0.0,0.0
25/12/2023,01:51:06,0.000,0.0,0.0,0.0
25/12/2023,01:52:06,0.000,0.0,0.0,0.0
25/12/2023,01:53:06,0.000,0.0,0.0,0.0
25/12/2023,01:54:06,0.000,0.0,0.0,0.0
25/12/2023,01:55:06,-0.000,0.0,0.0,0.0
25/12/2023,01:56:05,0.000,0.0,0.0,0.0
25/12/2023,01:57:28,-0.001,0.0,0.0,0.0
25/12/2023,01:58:06,0.000,0.0,0.0,0.0
25/12/2023,01:59:06,0.000,0.0,0.0,0.0
25/12/2023,02:00:06,0.000,0.0,0.0,0.0
25/12/2023,02:01:06,0.000,0.0,0.0,0.0
25/12/2023,02:02:06,0.000,0.0,0.0,0.0
25/12/2023,02:03:06,-0.000,0.0,0.0,0.0
25/12/2023,02:04:06,0.000,0.0,0.0,0.0
25/12/2023,02:05:06,0.000,0.0,0.0,0.0
25/12/2023,02:06:06,0.000,0.0,0.0,0.0
25/12/2023,02:07:06,0.000,0.0,0.0,0.0
25/12/2023,02:08:06,-0.000,0.0,0.0,0.0
25/12/2023,02:09:06,0.000,0.0,0.0,0.0
25/12/2023,02:10:06,-0.001,0.0,0.0,0.0
25/12/2023,02:11:06,-0.001,0.0,0.0,0.0
25/12/2023,02:12:07,0.000,0.0,0.0,0.0
25/12/2023,02:13:06,0.000,0.0,0.0,0.0
25/12/2023,02:14:07,0.001,0.0,0.0,0.0
25/12/2023,02:15:07,0.000,0.0,0.0,0.0
25/12/2023,02:16:06,0.000,0.0,0.0,0.0
25/12/2023,02:17:06,0.000,0.0,0.0,0.0
25/12/2023,02:18:06,0.000,0.0,0.0,0.0
25/12/2023,02:19:06,0.000,0.0,0.0,0.0
25/12/2023,02:20:06,-0.001,0.0,0.0,0.0
25/12/2023,02:21:06,-0.000,0.0,0.0,0.0
25/12/2023,02:22:06,-0.001,0.0,0.0,0.0
25/12/2023,02:23:07,0.000,0.0,0.0,0.0
25/12/2023,02:24:06,0.000,0.0,0.0,0.0
25/12/2023,02:25:07,0.000,0.0,0.0,0.0
25/12/2023,02:26:06,0.000,0.0,0.0,0.0
25/12/2023,02:27:06,0.000,0.0,0.0,0.0
25/12/2023,02:28:07,0.000,0.0,0.0,0.0
25/12/2023,02:29:06,0.000,0.0,0.0,0.0
25/12/2023,02:30:06,0.000,0.0,0.0,0.0
25/12/2023,02:31:07,-0.001,0.0,0.0,0.0
25/12/2023,02:32:07,0.000,0.0,0.0,0.0
25/12/2023,02:33:06,0.000,0.0,0.0,0.0
25/12/2023,02:34:06,0.000,0.0,0.0,0.0
25/12/2023,02:35:07,-0.001,0.0,0.0,0.0
25/12/2023,02:36:06,0.000,0.0,0.0,0.0
25/12/2023,02:37:06,0.000,0.0,0.0,0.0
25/12/2023,02:38:06,0.001,0.0,0.0,0.0
25/12/2023,02:39:06,-0.001,0.0,0.0,0.0
25/12/2023,02:40:06,-0.001,0.0,0.0,0.0
25/12/2023,02:41:06,-0.000,0.0,0.0,0.0
25/12/2023,02:42:07,0.000,0.0,0.0,0.0
25/12/2023,02:43:07,0.000,0.0,0.0,0.0
25/12/2023,02:44:06,-0.001,0.0,0.0,0.0
25/12/2023,02:45:07,0.000,0.0,0.0,0.0
25/12/2023,02:46:06,-0.001,0.0,0.0,0.0
25/12/2023,02:47:06,-0.000,0.0,0.0,0.0
25/12/2023,02:48:06,-0.001,0.0,0.0,0.0
25/12/2023,02:49:06,0.000,0.0,0.0,0.0
25/12/2023,02:50:06,-0.001,0.0,0.0,0.0
25/12/2023,02:51:06,0.000,0.0,0.0,0.0
25/12/2023,02:52:07,0.000,0.0,0.0,0.0
25/12/2023,02:53:06,0.001,0.0,0.0,0.0
25/12/2023,02:54:06,0.000,0.0,0.0,0.0
25/12/2023,02:55:06,-0.001,0.0,0.0,0.0
25/12/2023,02:56:06,0.000,0.0,0.0,0.0
25/12/2023,02:57:07,0.000,0.0,0.0,0.0
25/12/2023,02:58:06,-0.000,0.0,0.0,0.0
25/12/2023,02:59:07,0.000,0.0,0.0,0.0
25/12/2023,03:00:06,0.000,0.0,0.0,0.0
25/12/2023,03:01:07,0.000,0.0,0.0,0.0
25/12/2023,03:02:06,0.001,0.0,0.0,0.0
25/12/2023,03:03:06,0.001,0.0,0.0,0.0
25/12/2023,03:04:06,0.000,0.0,0.0,0.0
25/12/2023,03:05:07,0.000,0.0,0.0,0.0
25/12/2023,03:06:07,0.000,0.0,0.0,0.0
25/12/2023,03:07:07,-0.001,0.0,0.0,0.0
25/12/2023,03:08:06,0.000,0.0,0.0,0.0
25/12/2023,03:09:07,0.000,0.0,0.0,0.0
25/12/2023,03:10:07,-0.001,0.0,0.0,0.0
25/12/2023,03:11:06,0.000,0.0,0.0,0.0
25/12/2023,03:12:06,0.000,0.0,0.0,0.0
25/12/2023,03:13:06,0.000,0.0,0.0,0.0
25/12/2023,03:14:07,0.000,0.0,0.0,0.0
25/12/2023,03:15:07,0.001,0.0,0.0,0.0
25/12/2023,03:16:07,-0.001,0.0,0.0,0.0
25/12/2023,03:17:07,0.000,0.0,0.0,0.0
25/12/2023,03:18:06,0.001,0.0,0.0,0.0
25/12/2023,03:19:07,0.001,0.0,0.0,0.0
25/12/2023,03:20:07,-0.001,0.0,0.0,0.0
25/12/2023,03:21:07,-0.001,0.0,0.0,0.0
25/12/2023,03:22:06,-0.000,0.0,0.0,0.0
25/12/2023,03:23:06,0.000,0.0,0.0,0.0
25/12/2023,03:24:07,-0.001,0.0,0.0,0.0
25/12/2023,03:25:06,-0.001,0.0,0.0,0.0
25/12/2023,03:26:06,0.001,0.0,0.0,0.0
25/12/2023,03:27:06,0.000,0.0,0.0,0.0
25/12/2023,03:28:07,0.000,0.0,0.0,0.0
25/12/2023,03:29:07,0.000,0.0,0.0,0.0
25/12/2023,03:30:06,-0.001,0.0,0.0,0.0
25/12/2023,03:31:06,-0.000,0.0,0.0,0.0
25/12/2023,03:32:06,0.000,0.0,0.0,0.0
25/12/2023,03:33:07,-0.001,0.0,0.0,0.0
25/12/2023,03:34:06,-0.001,0.0,0.0,0.0
25/12/2023,03:35:06,0.001,0.0,0.0,0.0
25/12/2023,03:36:07,0.001,0.0,0.0,0.0
25/12/2023,03:37:06,-0.000,0.0,0.0,0.0
25/12/2023,03:38:07,0.001,0.0,0.0,0.0
25/12/2023,03:39:06,0.001,0.0,0.0,0.0
25/12/2023,03:40:06,0.000,0.0,0.0,0.0
25/12/2023,03:41:06,0.000,0.0,0.0,0.0
25/12/2023,03:42:07,-0.000,0.0,0.0,0.0
25/12/2023,03:43:06,-0.001,0.0,0.0,0.0
25/12/2023,03:44:07,0.000,0.0,0.0,0.0
25/12/2023,03:45:06,0.000,0.0,0.0,0.0
25/12/2023,03:46:07,-0.000,0.0,0.0,0.0
25/12/2023,03:47:07,0.000,0.0,0.0,0.0
25/12/2023,03:48:06,0.000,0.0,0.0,0.0
25/12/2023,03:49:07,-0.001,0.0,0.0,0.0
25/12/2023,03:50:07,-0.001,0.0,0.0,0.0
25/12/2023,03:51:06,-0.000,0.0,0.0,0.0
25/12/2023,03:52:07,0.001,0.0,0.0,0.0
25/12/2023,03:53:06,-0.001,0.0,0.0,0.0
25/12/2023,03:54:07,0.000,0.0,0.0,0.0
25/12/2023,03:55:06,-0.000,0.0,0.0,0.0
25/12/2023,03:56:06,0.000,0.0,0.0,0.0
25/12/2023,03:57:07,-0.001,0.0,0.0,0.0
25/12/2023,03:58:06,0.000,0.0,0.0,0.0
25/12/2023,03:59:07,0.000,0.0,0.0,0.0
25/12/2023,04:00:06,0.000,0.0,0.0,0.0
25/12/2023,04:01:06,0.000,0.0,0.0,0.0
25/12/2023,04:02:06,0.000,0.0,0.0,0.0
25/12/2023,04:03:07,0.000,0.0,0.0,0.0
25/12/2023,04:04:06,0.000,0.0,0.0,0.0
25/12/2023,04:05:06,0.000,0.0,0.0,0.0
25/12/2023,04:06:07,-0.000,0.0,0.0,0.0
25/12/2023,04:07:07,-0.000,0.0,0.0,0.0
25/12/2023,04:08:06,0.000,0.0,0.0,0.0
25/12/2023,04:09:06,-0.001,0.0,0.0,0.0
25/12/2023,04:10:07,-0.001,0.0,0.0,0.0
25/12/2023,04:11:06,0.000,0.0,0.0,0.0
25/12/2023,04:12:06,0.000,0.0,0.0,0.0
25/12/2023,04:13:06,0.000,0.0,0.0,0.0
25/12/2023,04:14:07,-0.000,0.0,0.0,0.0
25/12/2023,04:15:07,0.000,0.0,0.0,0.0
25/12/2023,04:16:06,0.000,0.0,0.0,0.0
25/12/2023,04:17:06,0.001,0.0,0.0,0.0
25/12/2023,04:18:06,-0.000,0.0,0.0,0.0
25/12/2023,04:19:06,0.000,0.0,0.0,0.0
25/12/2023,04:20:07,0.000,0.0,0.0,0.0
25/12/2023,04:21:06,0.000,0.0,0.0,0.0
25/12/2023,04:22:07,0.000,0.0,0.0,0.0
25/12/2023,04:23:06,-0.001,0.0,0.0,0.0
25/12/2023,04:24:07,-0.001,0.0,0.0,0.0
25/12/2023,04:25:36,0.000,0.0,0.0,0.0
25/12/2023,04:27:07,-0.000,0.0,0.0,0.0
25/12/2023,04:28:07,0.000,0.0,0.0,0.0
25/12/2023,04:29:06,0.001,0.0,0.0,0.0
25/12/2023,04:30:06,0.000,0.0,0.0,0.0
25/12/2023,04:31:07,0.000,0.0,0.0,0.0
25/12/2023,04:32:07,0.000,0.0,0.0,0.0
25/12/2023,04:33:07,0.000,0.0,0.0,0.0
25/12/2023,04:34:06,0.001,0.0,0.0,0.0
25/12/2023,04:35:07,-0.001,0.0,0.0,0.0
25/12/2023,04:36:07,0.000,0.0,0.0,0.0
25/12/2023,04:37:07,0.000,0.0,0.0,0.0
25/12/2023,04:38:06,0.000,0.0,0.0,0.0
25/12/2023,04:39:07,0.000,0.0,0.0,0.0
25/12/2023,04:40:06,0.000,0.0,0.0,0.0
25/12/2023,04:41:06,0.001,0.0,0.0,0.0
25/12/2023,04:42:07,0.002,0.0,0.0,0.0
25/12/2023,04:43:07,0.000,0.0,0.0,0.0
25/12/2023,04:44:07,-0.001,0.0,0.0,0.0
25/12/2023,04:45:06,0.000,0.0,0.0,0.0
25/12/2023,04:46:06,-0.000,0.0,0.0,0.0
25/12/2023,04:47:06,0.000,0.0,0.0,0.0
25/12/2023,04:48:07,0.000,0.0,0.0,0.0
25/12/2023,04:49:07,-0.000,0.0,0.0,0.0
25/12/2023,04:50:07,0.000,0.0,0.0,0.0
25/12/2023,04:51:06,0.000,0.0,0.0,0.0
25/12/2023,04:52:07,0.001,0.0,0.0,0.0
25/12/2023,04:53:07,0.000,0.0,0.0,0.0
25/12/2023,04:54:07,-0.001,0.0,0.0,0.0
25/12/2023,04:55:06,0.001,0.0,0.0,0.0
25/12/2023,04:56:07,0.000,0.0,0.0,0.0
25/12/2023,04:57:06,-0.001,0.0,0.0,0.0
25/12/2023,04:58:07,0.000,0.0,0.0,0.0
25/12/2023,04:59:06,0.000,0.0,0.0,0.0
25/12/2023,05:00:07,0.000,0.0,0.0,0.0
25/12/2023,05:01:06,0.000,0.0,0.0,0.0
25/12/2023,05:02:06,0.000,0.0,0.0,0.0
25/12/2023,05:03:07,-0.001,0.0,0.0,0.0
25/12/2023,05:04:06,0.000,0.0,0.0,0.0
25/12/2023,05:05:06,0.000,0.0,0.0,0.0
25/12/2023,05:06:07,0.000,0.0,0.0,0.0
25/12/2023,05:07:07,-0.000,0.0,0.0,0.0
25/12/2023,05:08:06,0.000,0.0,0.0,0.0
25/12/2023,05:09:06,-0.000,0.0,0.0,0.0
25/12/2023,05:10:06,0.000,0.0,0.0,0.0
25/12/2023,05:11:07,0.001,0.0,0.0,0.0
25/12/2023,05:12:07,0.000,0.0,0.0,0.0
25/12/2023,05:13:07,0.000,0.0,0.0,0.0
25/12/2023,05:14:06,0.000,0.0,0.0,0.0
25/12/2023,05:15:06,-0.000,0.0,0.0,0.0
25/12/2023,05:16:07,0.000,0.0,0.0,0.0
25/12/2023,05:17:07,0.000,0.0,0.0,0.0
25/12/2023,05:18:07,0.001,0.0,0.0,0.0
25/12/2023,05:19:06,0.000,0.0,0.0,0.0
25/12/2023,05:20:07,0.001,0.0,0.0,0.0
25/12/2023,05:21:06,0.000,0.0,0.0,0.0
25/12/2023,05:22:07,0.000,0.0,0.0,0.0
25/12/2023,05:23:07,0.001,0.0,0.0,0.0
25/12/2023,05:24:06,0.000,0.0,0.0,0.0
25/12/2023,05:25:07,0.000,0.0,0.0,0.0
25/12/2023,05:26:06,-0.001,0.0,0.0,0.0
25/12/2023,05:27:07,-0.000,0.0,0.0,0.0
25/12/2023,05:28:07,0.000,0.0,0.0,0.0
25/12/2023,05:29:06,0.000,0.0,0.0,0.0
25/12/2023,05:30:07,0.000,0.0,0.0,0.0
25/12/2023,05:31:06,0.000,0.0,0.0,0.0
25/12/2023,05:32:07,0.000,0.0,0.0,0.0
25/12/2023,05:33:07,-0.001,0.0,0.0,0.0
25/12/2023,05:34:06,0.000,0.0,0.0,0.0
25/12/2023,05:35:07,0.000,0.0,0.0,0.0
25/12/2023,05:36:07,0.000,0.0,0.0,0.0
25/12/2023,05:37:07,0.000,0.0,0.0,0.0
25/12/2023,05:38:06,-0.001,0.0,0.0,0.0
25/12/2023,05:39:07,0.001,0.0,0.0,0.0
25/12/2023,05:40:07,-0.001,0.0,0.0,0.0
25/12/2023,05:41:06,0.000,0.0,0.0,0.0
25/12/2023,05:42:07,-0.000,0.0,0.0,0.0
25/12/2023,05:43:07,-0.000,0.0,0.0,0.0
25/12/2023,05:44:07,-0.000,0.0,0.0,0.0
25/12/2023,05:45:06,-0.001,0.0,0.0,0.0
25/12/2023,05:46:07,0.000,0.0,0.0,0.0
25/12/2023,05:47:06,0.000,0.0,0.0,0.0
25/12/2023,05:48:07,0.000,0.0,0.0,0.0
25/12/2023,05:49:06,-0.000,0.0,0.0,0.0
25/12/2023,05:50:06,0.000,0.0,0.0,0.0
25/12/2023,05:51:07,0.000,0.0,0.0,0.0
25/12/2023,05:52:07,-0.001,0.0,0.0,0.0
25/12/2023,05:53:06,0.000,0.0,0.0,0.0
25/12/2023,05:54:07,0.001,0.0,0.0,0.0
25/12/2023,05:55:07,0.000,0.0,0.0,0.0
25/12/2023,05:56:07,0.000,0.0,0.0,0.0
25/12/2023,05:57:07,-0.000,0.0,0.0,0.0
25/12/2023,05:58:06,0.000,0.0,0.0,0.0
25/12/2023,05:59:06,0.000,0.0,0.0,0.0
25/12/2023,06:00:06,-0.001,0.0,0.0,0.0
25/12/2023,06:01:07,0.000,0.0,0.0,0.0
25/12/2023,06:02:07,-0.000,0.0,0.0,0.0
25/12/2023,06:03:07,0.000,0.0,0.0,0.0
25/12/2023,06:04:07,-0.001,0.0,0.0,0.0
25/12/2023,06:05:06,0.000,0.0,0.0,0.0
25/12/2023,06:06:07,0.000,0.0,0.0,0.0
25/12/2023,06:07:07,0.000,0.0,0.0,0.0
25/12/2023,06:08:06,0.000,0.0,0.0,0.0
25/12/2023,06:09:06,0.000,0.0,0.0,0.0
25/12/2023,06:10:07,0.000,0.0,0.0,0.0
25/12/2023,06:11:06,-0.000,0.0,0.0,0.0
25/12/2023,06:12:06,-0.001,0.0,0.0,0.0
25/12/2023,06:13:07,-0.001,0.0,0.0,0.0
25/12/2023,06:14:07,-0.001,0.0,0.0,0.0
25/12/2023,06:15:06,-0.000,0.0,0.0,0.0
25/12/2023,06:16:07,0.000,0.0,0.0,0.0
25/12/2023,06:17:07,0.001,0.0,0.0,0.0
25/12/2023,06:18:07,0.000,0.0,0.0,0.0
25/12/2023,06:19:06,0.001,0.0,0.0,0.0
25/12/2023,06:20:07,0.000,0.0,0.0,0.0
25/12/2023,06:21:07,0.000,0.0,0.0,0.0
25/12/2023,06:22:07,0.000,0.0,0.0,0.0
25/12/2023,06:23:06,-0.001,0.0,0.0,0.0
25/12/2023,06:24:07,0.000,0.0,0.0,0.0
25/12/2023,06:25:08,0.000,0.0,0.0,0.0
25/12/2023,06:26:08,0.000,0.0,0.0,0.0
25/12/2023,06:27:07,0.001,0.0,0.0,0.0
25/12/2023,06:28:06,-0.001,0.0,0.0,0.0
25/12/2023,06:29:07,0.000,0.0,0.0,0.0
25/12/2023,06:30:07,0.000,0.0,0.0,0.0
25/12/2023,06:31:07,0.000,0.0,0.0,0.0
25/12/2023,06:32:06,0.000,0.0,0.0,0.0
25/12/2023,06:33:07,-0.000,0.0,0.0,0.0
25/12/2023,06:34:07,-0.000,0.0,0.0,0.0
25/12/2023,06:35:06,0.000,0.0,0.0,0.0
25/12/2023,06:36:07,0.000,0.0,0.0,0.0
25/12/2023,06:37:07,0.000,0.0,0.0,0.0
25/12/2023,06:38:06,0.000,0.0,0.0,0.0
25/12/2023,06:39:07,0.000,0.0,0.0,0.0
25/12/2023,06:40:07,0.000,0.0,0.0,0.0
25/12/2023,06:41:06,0.001,0.0,0.0,0.0
25/12/2023,06:42:07,-0.001,0.0,0.0,0.0
25/12/2023,06:43:06,0.000,0.0,0.0,0.0
25/12/2023,06:44:07,-0.001,0.0,0.0,0.0
25/12/2023,06:45:07,0.000,0.0,0.0,0.0
25/12/2023,06:46:07,0.000,0.0,0.0,0.0
25/12/2023,06:47:06,0.000,0.0,0.0,0.0
25/12/2023,06:48:07,0.001,0.0,0.0,0.0
25/12/2023,06:49:06,0.000,0.0,0.0,0.0
25/12/2023,06:50:07,0.001,0.0,0.0,0.0
25/12/2023,06:51:07,-0.000,0.0,0.0,0.0
25/12/2023,06:52:07,0.000,0.0,0.0,0.0
25/12/2023,06:53:07,0.001,0.0,0.0,0.0
25/12/2023,06:54:07,-0.001,0.0,0.0,0.0
25/12/2023,06:55:06,0.000,0.0,0.0,0.0
25/12/2023,06:56:07,0.000,0.0,0.0,0.0
25/12/2023,06:57:07,0.000,0.0,0.0,0.0
25/12/2023,06:58:07,0.000,0.0,0.0,0.0
25/12/2023,06:59:06,0.000,0.0,0.0,0.0
25/12/2023,07:00:07,0.001,0.0,0.0,0.0
25/12/2023,07:01:07,0.000,0.0,0.0,0.0
25/12/2023,07:02:07,0.001,0.0,0.0,0.0
25/12/2023,07:03:07,0.000,0.0,0.0,0.0
25/12/2023,07:04:06,0.001,0.0,0.0,0.0
25/12/2023,07:05:07,0.000,0.0,0.0,0.0
25/12/2023,07:06:06,0.001,0.0,0.0,0.0
25/12/2023,07:07:07,-0.001,0.0,0.0,0.0
25/12/2023,07:08:06,0.000,0.0,0.0,0.0
25/12/2023,07:09:07,0.000,0.0,0.0,0.0
25/12/2023,07:10:07,0.000,0.0,0.0,0.0
25/12/2023,07:11:06,0.001,0.0,0.0,0.0
25/12/2023,07:12:07,0.000,0.0,0.0,0.0
25/12/2023,07:13:07,0.002,0.0,0.0,0.0
25/12/2023,07:14:07,-0.000,0.0,0.0,0.0
25/12/2023,07:15:07,-0.000,0.0,0.0,0.0
25/12/2023,07:16:07,-0.000,0.0,0.0,0.0
25/12/2023,07:17:07,0.000,0.0,0.0,0.0
25/12/2023,07:18:06,0.001,0.0,0.0,0.0
25/12/2023,07:19:07,0.001,0.0,0.0,0.0
25/12/2023,07:20:07,0.001,0.0,0.0,0.0
25/12/2023,07:21:07,0.000,0.0,0.0,0.0
25/12/2023,07:22:06,0.000,0.0,0.0,0.0
25/12/2023,07:23:07,0.000,0.0,0.0,0.0
25/12/2023,07:24:07,0.001,0.0,0.0,0.0
25/12/2023,07:25:06,0.002,0.0,0.0,0.0
25/12/2023,07:26:07,-0.000,0.0,0.0,0.0
25/12/2023,07:27:07,0.001,0.0,0.0,0.0
25/12/2023,07:28:06,0.001,0.0,0.0,0.0
25/12/2023,07:29:07,0.002,0.0,0.0,0.0
25/12/2023,07:30:07,-0.001,0.0,0.0,0.0
25/12/2023,07:31:07,-0.000,0.0,0.0,0.0
25/12/2023,07:32:07,0.000,0.0,0.0,0.0
25/12/2023,07:33:06,0.001,0.0,0.0,0.0
25/12/2023,07:34:06,0.001,0.0,0.0,0.0
25/12/2023,07:35:07,-0.000,0.0,0.0,0.0
25/12/2023,07:36:07,0.001,0.0,0.0,0.0
25/12/2023,07:37:07,0.001,0.0,0.0,0.0
25/12/2023,07:38:07,-0.001,0.0,0.0,0.0
25/12/2023,07:39:07,0.001,0.0,0.0,0.0
25/12/2023,07:40:07,0.001,0.0,0.0,0.0
25/12/2023,07:41:06,0.001,0.0,0.0,0.0
25/12/2023,07:42:07,0.001,0.0,0.0,0.0
25/12/2023,07:43:06,0.001,0.0,0.0,0.0
25/12/2023,07:44:07,0.002,0.0,0.0,0.0
25/12/2023,07:45:06,0.000,0.0,0.0,0.0
25/12/2023,07:46:07,0.001,0.0,0.0,0.0
25/12/2023,07:47:07,0.001,0.0,0.0,0.0
25/12/2023,07:48:07,0.001,0.0,0.0,0.0
25/12/2023,07:49:06,0.001,0.0,0.0,0.0
25/12/2023,07:50:07,0.001,0.0,0.0,0.0
25/12/2023,07:51:07,0.000,0.0,0.0,0.0
25/12/2023,07:52:07,0.001,0.0,0.0,0.0
25/12/2023,07:53:06,-0.000,0.0,0.0,0.0
25/12/2023,07:54:07,0.001,0.0,0.0,0.0
25/12/2023,07:55:07,0.002,0.0,0.0,0.0
25/12/2023,07:56:07,0.001,0.0,0.0,0.0
25/12/2023,07:57:07,0.000,0.0,0.0,0.0
25/12/2023,07:58:07,0.001,0.0,0.0,0.0
25/12/2023,07:59:06,0.002,0.0,0.0,0.0
25/12/2023,08:00:07,0.001,0.0,0.0,0.0
25/12/2023,08:01:07,0.002,0.0,0.0,0.0
25/12/2023,08:02:06,0.001,0.0,0.0,0.0
25/12/2023,08:03:07,0.002,0.0,0.0,0.0
25/12/2023,08:04:07,0.002,0.0,0.0,0.0
25/12/2023,08:05:07,0.003,0.0,0.0,0.0
25/12/2023,08:06:06,0.002,0.0,0.0,0.0
25/12/2023,08:07:07,0.002,0.0,0.0,0.0
25/12/2023,08:08:07,0.002,0.0,0.0,0.0
25/12/2023,08:09:08,0.003,0.0,0.0,0.0
25/12/2023,08:10:07,0.002,0.0,0.0,0.0
25/12/2023,08:11:06,0.002,0.0,0.0,0.0
25/12/2023,08:12:07,0.001,0.0,0.0,0.0
25/12/2023,08:13:07,0.002,0.0,0.0,0.0
25/12/2023,08:14:07,0.002,0.0,0.0,0.0
25/12/2023,08:15:07,0.002,0.0,0.0,0.0
25/12/2023,08:16:07,0.002,0.0,0.0,0.0
25/12/2023,08:17:07,0.002,0.0,0.0,0.0
25/12/2023,08:18:07,0.002,0.0,0.0,0.0
25/12/2023,08:19:06,0.002,0.0,0.0,0.0
25/12/2023,08:20:07,0.002,0.0,0.0,0.0
25/12/2023,08:21:07,0.003,0.0,0.0,0.0
25/12/2023,08:22:07,0.003,0.0,0.0,0.0
25/12/2023,08:23:07,0.003,0.0,0.0,0.0
25/12/2023,08:24:07,0.002,0.0,0.0,0.0
25/12/2023,08:25:07,0.003,0.0,0.0,0.0
25/12/2023,08:26:06,0.003,0.0,0.0,0.0
25/12/2023,08:27:07,0.003,0.0,0.0,0.0
25/12/2023,08:28:07,0.003,0.0,0.0,0.0
25/12/2023,08:29:07,0.004,0.0,0.0,0.0
25/12/2023,08:30:07,0.004,0.0,0.0,0.0
25/12/2023,08:31:06,0.004,0.0,0.0,0.0
25/12/2023,08:32:07,0.004,0.0,0.0,0.0
25/12/2023,08:33:07,0.005,0.0,0.0,0.0
25/12/2023,08:34:07,0.005,0.0,0.0,0.0
25/12/2023,08:35:07,0.006,0.0,0.0,0.0
25/12/2023,08:36:07,0.005,0.0,0.0,0.0
25/12/2023,08:37:07,0.006,0.0,0.0,0.0
25/12/2023,08:38:06,0.005,0.0,0.0,0.0
25/12/2023,08:39:07,0.007,0.0,0.0,0.0
25/12/2023,08:40:07,0.006,0.0,0.0,0.0
25/12/2023,08:41:07,0.007,0.0,0.0,0.0
25/12/2023,08:42:07,0.007,0.0,0.0,0.0
25/12/2023,08:43:07,0.009,0.0,0.001,0.001
25/12/2023,08:44:07,0.008,0.0,0.001,0.0
25/12/2023,08:45:07,0.009,0.0,0.001,0.0
25/12/2023,08:46:07,0.010,0.0,0.001,0.0
25/12/2023,08:47:07,0.010,0.0,0.001,0.0
25/12/2023,08:48:07,0.010,0.0,0.001,0.0
25/12/2023,08:49:06,0.011,0.0,0.002,0.001
25/12/2023,08:50:07,0.012,0.0,0.002,0.0
25/12/2023,08:51:07,0.012,0.0,0.002,0.0
25/12/2023,08:52:07,0.013,0.0,0.002,0.0
25/12/2023,08:53:06,0.014,0.0,0.002,0.0
25/12/2023,08:54:07,0.013,0.0,0.003,0.001
25/12/2023,08:55:07,0.015,0.0,0.003,0.0
25/12/2023,08:56:07,0.015,0.0,0.003,0.0
25/12/2023,08:57:07,0.016,0.0,0.003,0.0
25/12/2023,08:58:07,0.017,0.0,0.004,0.001
25/12/2023,08:59:07,0.017,0.0,0.004,0.0
25/12/2023,09:00:07,0.018,0.0,0.004,0.0
25/12/2023,09:01:07,0.018,0.0,0.004,0.0
25/12/2023,09:02:07,0.020,0.0,0.005,0.001
25/12/2023,09:03:07,0.021,0.0,0.005,0.0
25/12/2023,09:04:07,0.020,0.0,0.005,0.0
25/12/2023,09:05:07,0.023,0.0,0.006,0.001
25/12/2023,09:06:06,0.022,0.0,0.006,0.0
25/12/2023,09:07:07,0.023,0.0,0.007,0.001
25/12/2023,09:08:07,0.023,0.0,0.007,0.0
25/12/2023,09:09:07,0.023,0.0,0.007,0.0
25/12/2023,09:10:06,0.024,0.0,0.008,0.001
25/12/2023,09:11:07,0.024,0.0,0.008,0.0
25/12/2023,09:12:07,0.026,0.0,0.009,0.001
25/12/2023,09:13:07,0.026,0.0,0.009,0.0
25/12/2023,09:14:06,0.028,0.0,0.009,0.0
25/12/2023,09:15:07,0.028,0.0,0.01,0.001
25/12/2023,09:16:07,0.029,0.0,0.01,0.0
25/12/2023,09:17:07,0.029,0.0,0.011,0.001
25/12/2023,09:18:07,0.029,0.0,0.011,0.0
25/12/2023,09:19:07,0.030,0.0,0.012,0.001
25/12/2023,09:20:07,0.029,0.0,0.012,0.0
25/12/2023,09:21:07,0.030,0.0,0.013,0.001
25/12/2023,09:22:07,0.030,0.0,0.013,0.0
25/12/2023,09:23:07,0.029,0.0,0.014,0.001
25/12/2023,09:24:07,0.030,0.0,0.014,0.0
25/12/2023,09:25:07,0.029,0.0,0.015,0.001
25/12/2023,09:26:07,0.028,0.0,0.015,0.0
25/12/2023,09:27:07,0.026,0.0,0.016,0.001
25/12/2023,09:28:07,0.029,0.0,0.016,0.0
25/12/2023,09:29:06,0.030,0.0,0.017,0.001
25/12/2023,09:30:07,0.026,0.0,0.017,0.0
25/12/2023,09:31:07,0.029,0.0,0.018,0.001
25/12/2023,09:32:07,0.034,0.0,0.018,0.0
25/12/2023,09:33:07,0.035,0.0,0.019,0.001
25/12/2023,09:34:07,0.034,0.0,0.019,0.0
25/12/2023,09:35:07,0.036,0.0,0.02,0.001
25/12/2023,09:36:07,0.037,0.0,0.021,0.001
25/12/2023,09:37:07,0.039,0.0,0.021,0.0
25/12/2023,09:38:06,0.038,0.0,0.022,0.001
25/12/2023,09:39:07,0.039,0.0,0.022,0.0
25/12/2023,09:40:07,0.038,0.0,0.023,0.001
25/12/2023,09:41:07,0.040,0.0,0.024,0.001
25/12/2023,09:42:07,0.041,0.0,0.024,0.0
25/12/2023,09:43:07,0.042,0.0,0.025,0.001
25/12/2023,09:44:06,0.042,0.0,0.026,0.001
25/12/2023,09:45:07,0.042,0.0,0.026,0.0
25/12/2023,09:46:07,0.042,0.0,0.027,0.001
25/12/2023,09:47:07,0.044,0.0,0.028,0.001
25/12/2023,09:48:07,0.045,0.0,0.029,0.001
25/12/2023,09:49:07,0.047,0.0,0.029,0.0
25/12/2023,09:50:07,0.049,0.0,0.03,0.001
25/12/2023,09:51:07,0.051,0.0,0.031,0.001
25/12/2023,09:52:07,0.050,0.0,0.032,0.001
25/12/2023,09:53:07,0.051,0.0,0.033,0.001
25/12/2023,09:54:07,0.051,0.0,0.034,0.001
25/12/2023,09:55:07,0.054,0.0,0.035,0.001
25/12/2023,09:56:07,0.055,0.0,0.035,0.0
25/12/2023,09:57:07,0.051,0.0,0.036,0.001
25/12/2023,09:58:07,0.046,0.0,0.037,0.001
25/12/2023,09:59:07,0.042,0.0,0.038,0.001
25/12/2023,10:00:07,0.036,0.0,0.039,0.001
25/12/2023,10:01:07,0.036,0.0,0.039,0.0
25/12/2023,10:02:07,0.035,0.0,0.04,0.001
25/12/2023,10:03:07,0.036,0.0,0.04,0.0
25/12/2023,10:04:07,0.036,0.0,0.041,0.001
25/12/2023,10:05:07,0.037,0.0,0.041,0.0
25/12/2023,10:06:07,0.038,0.0,0.042,0.001
25/12/2023,10:07:07,0.040,0.0,0.043,0.001
25/12/2023,10:08:07,0.041,0.0,0.043,0.0
25/12/2023,10:09:07,0.040,0.0,0.044,0.001
25/12/2023,10:10:07,0.036,0.0,0.045,0.001
25/12/2023,10:11:07,0.032,0.0,0.045,0.0
25/12/2023,10:12:07,0.029,0.0,0.046,0.001
25/12/2023,10:13:07,0.027,0.0,0.046,0.0
25/12/2023,10:14:07,0.027,0.0,0.047,0.001
25/12/2023,10:15:07,0.025,0.0,0.047,0.0
25/12/2023,10:16:08,0.027,0.0,0.048,0.001
25/12/2023,10:17:07,0.027,0.0,0.048,0.0
25/12/2023,10:18:07,0.024,0.0,0.048,0.0
25/12/2023,10:19:07,0.024,0.0,0.049,0.001
25/12/2023,10:20:07,0.025,0.0,0.049,0.0
25/12/2023,10:21:08,0.026,0.0,0.05,0.001
25/12/2023,10:22:07,0.028,0.0,0.05,0.0
25/12/2023,10:23:07,0.031,0.0,0.051,0.001